Location: Bagno
(50.6205°N, 18.8959°E)
Time: 05:09:22
(UTC+00:00)

Daily predictions for brighter satellites

Satellite Brightness Start Highest point End
(mag) Time Altitude Azimuth Time Altitude Azimuth Time Altitude Azimuth
Cosmos 1992 Rocket 3.8 00:05:01 74° S 00:05:31 85° ESE 00:10:46 10° NNE
Cosmos 1726 Rocket 3.6 00:07:11 67° NW 00:07:11 67° NW 00:11:02 10° N
PSLV R/B 4.2 00:05:13 10° NNE 00:08:26 60° N 00:08:26 60° N
Meteor 1-26 Rocket 4.1 00:09:29 58° SSE 00:10:26 72° E 00:15:50 10° NNE
Cosmos 1536 3.2 00:09:11 10° N 00:12:17 53° NNE 00:12:17 53° NNE
ATLAS 2AS CENTAUR R/B 3.4 00:09:45 22° W 00:13:55 47° NNW 00:20:29 10° NE
IDEFIX/ARIANE 42P 3.0 00:10:23 10° NNE 00:15:27 51° E 00:16:41 42° SE
Cosmos 1953 Rocket 4.0 00:18:25 10° NNW 00:22:18 50° WNW 00:22:18 50° WNW
Nimbus 7 Rocket 4.5 00:18:08 10° NNE 00:24:14 74° ESE 00:26:11 45° S
USA 234 3.6 00:18:39 10° E 00:25:06 65° NNE 00:31:35 10° WNW
Cosmos 1980 Rocket 3.5 00:20:38 10° NW 00:24:20 25° W 00:24:20 25° W
Cosmos 1766 4.3 00:22:23 10° NNW 00:24:17 33° NNW 00:24:17 33° NNW
Cosmos 1707 3.8 00:31:24 31° N 00:31:24 31° N 00:33:04 10° N
Cosmos 44 Rocket 3.3 00:29:47 63° SSW 00:30:35 82° SE 00:35:47 10° NE
ADEOS II 4.5 00:27:54 10° NE 00:30:56 15° E 00:33:57 10° ESE
COSMOS 2406 3.3 00:32:29 49° S 00:34:02 72° ESE 00:39:48 10° NNE
MSX 3.9 00:29:00 10° NNE 00:34:46 74° ESE 00:36:45 43° S
Cosmos 1975 3.6 00:32:06 10° N 00:35:35 42° ENE 00:36:20 36° ESE
Cosmos 2369 4.3 00:31:33 10° NW 00:36:37 39° WSW 00:36:37 39° WSW
ADEOS Rocket 4.0 00:29:39 10° NNE 00:37:08 58° E 00:41:53 25° S
Cosmos 1634 Rocket 4.0 00:35:56 46° SW 00:37:47 70° WNW 00:43:57 10° N
SL-08 ROCKET BODY 4.3 00:31:51 10° NNW 00:37:50 78° W 00:40:00 42° S
ALOS 4.4 00:35:11 10° NE 00:38:27 19° E 00:41:29 11° SE
CZ-2D R/B 4.0 00:35:10 10° NE 00:39:23 24° E 00:43:17 11° SE
Cosmos 724 4.3 00:44:49 43° SW 00:46:56 78° NW 00:52:54 10° NE
Cosmos 2084 4.4 00:46:23 31° WNW 00:47:27 37° NW 00:51:20 10° NE
Cosmos 1607 3.9 00:47:22 42° SW 00:49:36 89° NW 00:55:55 10° NE
Cosmos 1354 Rocket 4.4 00:46:46 10° NNW 00:52:03 64° ENE 00:57:15 10° SE
Cosmos-2242 3.4 00:52:12 44° W 00:52:23 44° WNW 00:56:26 10° N
Cosmos 2360 Rocket 2.4 00:47:10 10° NNW 00:52:52 74° ENE 00:58:33 10° SE
Cosmos 1503 Rocket 3.9 00:48:12 10° NNW 00:53:30 89° NE 00:56:50 23° SSE
Cosmos 2333 Rocket 2.1 00:48:14 10° NNW 00:53:53 72° WSW 00:57:05 27° SSE
FENGYUN 3A 3.7 00:49:06 10° NNE 00:54:33 80° ESE 00:56:44 38° S
USA 281 3.2 00:51:27 30° S 00:54:44 61° WSW 01:01:15 10° NNW
Cosmos 220 Rocket 3.8 00:56:20 62° S 00:56:54 75° ESE 01:00:56 10° NNE
Cosmos 2082 Rocket 2.9 00:59:24 30° WSW 01:01:42 44° NW 01:07:11 10° NNE
Cosmos 1842 2.9 01:02:44 65° NNW 01:02:44 65° NNW 01:05:37 10° N
Cosmos 540 Rocket 4.1 01:01:37 28° SSE 01:04:00 48° ESE 01:08:57 10° NNE
Meteor 2-2 Rocket 4.5 01:02:52 38° SW 01:04:43 53° WNW 01:10:14 10° N
Cosmos 2279 Rocket 4.1 01:03:59 36° SW 01:06:30 62° WNW 01:12:43 10° N
Meteor 2-9 Rocket 4.0 01:02:13 10° NNW 01:07:34 78° W 01:10:19 29° S
Cosmos 2278 3.7 01:01:58 10° NW 01:07:38 63° WSW 01:11:11 23° S
NPP 3.6 01:02:16 10° NNE 01:07:41 80° WNW 01:09:56 37° SSW
Cosmos 2322 Rocket 2.1 01:02:31 10° NNW 01:08:11 83° WSW 01:13:49 10° SSE
Cosmos 1486 Rocket 4.2 01:03:10 10° NNW 01:08:12 50° WSW 01:09:36 39° SSW
Resurs 1-4 Rocket 3.0 01:03:28 10° NNE 01:08:32 43° E 01:12:17 17° SSE
Cosmos 2221 2.3 01:07:40 49° S 01:08:45 86° E 01:12:55 10° N
USA 305 4.1 01:16:13 17° NE 01:16:13 17° NE 01:16:46 10° NE
ACS3 Solar Sail 2.6 01:10:36 10° N 01:15:59 35° WNW 01:18:33 25° WSW
NOSS 3-3 (A) 3.7 01:14:12 36° SW 01:16:33 87° NW 01:22:57 10° NE
Cosmos 1777 Rocket 4.2 01:13:47 10° NNW 01:18:50 47° WSW 01:20:41 33° SSW
Cosmos 2219 Rocket 2.3 01:16:31 10° NNW 01:22:11 77° ENE 01:27:51 10° SE
SL-16 R/B 2.6 01:17:46 10° NW 01:23:01 40° WSW 01:24:53 31° SSW
H-2A R/B 3.2 01:18:21 10° NNE 01:23:12 40° E 01:27:58 11° SSE
Meteor 1-11 Rocket 3.7 01:18:03 10° NNW 01:24:00 85° WSW 01:29:12 13° S
CZ-4C R/B 2.9 01:22:06 22° W 01:24:42 41° NNW 01:30:17 10° NE
Meteor 1-19 Rocket 4.1 01:22:10 28° SSW 01:25:09 87° W 01:30:48 10° NNE
Cosmos 1271 Rocket 2.4 01:27:38 52° SW 01:28:17 66° WNW 01:31:45 10° N
NOAA 11 4.1 01:23:26 10° NNE 01:28:54 85° WNW 01:32:03 26° SSW
Meteor 1-14 Rocket 4.5 01:24:15 10° NNW 01:29:47 50° W 01:32:37 27° SSW
USA 267 3.5 01:23:31 10° ENE 01:30:02 61° SE 01:34:01 25° SW
SL-4 R/B 2.1 01:31:34 42° SSW 01:31:39 42° SSW 01:35:16 10° SE
Meteor 1-10 Rocket 4.2 01:29:04 23° S 01:32:43 90° ESE 01:38:34 10° NNE
Cosmos 2058 Rocket 4.5 01:32:04 22° W 01:33:05 23° WNW 01:36:40 10° NNW
NOSS 3-3 (C) 3.8 01:30:27 30° SW 01:33:19 82° NW 01:39:49 10° NE
Cosmos 2266 Rocket 4.1 01:29:20 10° NNW 01:35:18 54° W 01:39:09 22° SSW
Cosmos 1470 3.6 01:33:48 10° NNW 01:36:16 26° WNW 01:36:16 26° WNW
Gbstr 26 Del rocket 2.8 01:37:23 35° WSW 01:38:21 44° SSW 01:41:55 10° SE
USA 290 2.5 01:37:48 37° S 01:38:50 61° ESE 01:41:58 10° NNE
Cosmos 2333 4.3 01:43:05 10° NW 01:48:37 56° WSW 01:54:10 10° S
Cosmos 372 Rocket 4.0 01:43:27 10° NNW 01:48:40 83° ENE 01:53:48 10° SSE
DMSP B5D2-2 4.2 01:45:23 17° S 01:49:18 53° W 01:54:24 10° NNW
Cosmos 1655 Rocket 3.9 01:44:16 10° NNW 01:50:31 80° W 01:56:43 10° S
Cosmos 1812 Rocket 3.9 01:49:34 27° SW 01:51:31 46° WNW 01:55:44 10° N
NOSS 3-4 (A) 3.7 01:47:13 10° NW 01:53:52 74° SW 02:01:44 10° SSE
Meteor 2-20 Rocket 4.4 01:49:02 15° SSW 01:54:12 84° W 02:00:10 10° N
NOSS 3-4 (C) 3.8 01:47:46 10° NW 01:54:26 75° SW 02:02:19 10° SSE
IDEFIX/ARIANE 42P 3.7 01:50:17 10° N 01:54:40 28° WNW 01:57:22 18° WSW
Meteor 2-4 Rocket 3.8 01:52:16 10° S 01:57:34 71° E 02:02:54 10° NNE
Envisat 3.0 01:52:35 10° N 01:57:39 71° WNW 02:01:23 18° SSW
ISS -1.7 01:56:14 14° S 01:57:41 18° SE 02:00:05 10° E
Aureole 1 Rocket 3.1 01:55:50 10° NNW 01:59:54 61° WSW 02:05:00 10° S
JB-3 4.0 01:56:31 10° SSE 02:00:07 88° WSW 02:03:45 10° NNW
Cosmos 2084 Rocket 3.9 02:00:06 10° WNW 02:04:00 37° SW 02:07:54 10° SSE
Iridium 4 Rocket 3.7 02:03:00 20° SW 02:06:00 46° W 02:10:55 10° N
Cosmos 1461 3.8 02:03:16 14° S 02:06:04 35° ESE 02:09:31 10° NE
ATLAS 2AS CENTAUR R/B 4.4 02:00:40 10° WNW 02:06:26 28° N 02:12:09 10° NE
USA 234 3.2 02:01:42 10° SE 02:08:10 64° SW 02:14:41 10° WNW
H-2A R/B 2.7 02:06:25 20° SSW 02:08:28 37° W 02:11:50 10° NNW
Meteor 1-27 Rocket 3.8 02:03:30 14° SSW 02:08:45 74° WNW 02:14:42 10° N
Cosmos 1975 4.3 02:07:53 10° NW 02:10:15 17° W 02:10:36 16° W
ADEOS II 2.1 02:05:56 10° NNE 02:11:13 89° W 02:16:27 10° SSW
Cosmos 1842 Rocket 3.7 02:09:31 10° S 02:13:48 72° E 02:18:07 10° NNE
Cosmos 2297 Rocket 4.5 02:11:21 10° SSE 02:15:27 21° E 02:19:34 10° NE
ALOS 2.3 02:11:15 10° N 02:15:45 59° WNW 02:19:31 14° SSW
Cosmos 1238 Rocket 2.3 02:15:06 22° SW 02:16:38 46° WNW 02:19:34 10° N
Cosmos 1763 Rocket 4.1 02:13:16 17° SW 02:17:00 45° WNW 02:22:05 10° NNE
CZ-2D R/B 2.2 02:14:33 10° N 02:19:44 60° WNW 02:24:33 12° SSW
SL-16 R/B 2.7 02:14:34 10° SSE 02:20:50 79° ENE 02:27:08 10° NNW
COSMOS 2428 3.0 02:15:28 10° NNW 02:21:13 76° ENE 02:26:55 10° SE
ADEOS Rocket 4.2 02:15:26 10° N 02:22:20 41° WNW 02:28:49 13° SW
Cosmos 841 Rocket 3.8 02:19:10 10° S 02:24:15 66° ESE 02:29:24 10° NNE
Sich 1 3.0 02:21:13 10° N 02:25:24 83° ENE 02:29:33 10° SSE
Okean 3 Rocket 3.7 02:21:07 10° N 02:25:36 81° E 02:30:03 10° SSE
Cosmos 1758 3.8 02:25:29 10° N 02:29:06 57° ENE 02:32:41 10° SSE
Cosmos 1898 Rocket 3.5 02:24:35 10° NNW 02:29:42 63° WSW 02:34:46 10° S
Cosmos 1937 Rocket 3.4 02:29:04 10° NNW 02:34:17 76° WSW 02:39:25 10° SSE
Cosmos 1805 Rocket 4.1 02:30:16 10° N 02:34:39 62° ENE 02:38:58 10° SSE
Cosmos 2360 Rocket 3.4 02:32:03 10° NW 02:36:16 22° W 02:40:28 10° SSW
Cosmos 2333 Rocket 3.9 02:34:44 10° WNW 02:37:08 13° W 02:39:00 11° WSW
Alouette 2 Rocket 4.2 02:34:22 10° NNW 02:37:53 28° W 02:40:58 10° SSW
USA 305 2.6 02:39:28 10° NW 02:40:32 14° N 02:41:12 10° NNE
Meteor 1-18 Rocket 4.2 02:37:10 10° S 02:42:45 90° NNE 02:48:19 10° NNE
Meteor 2-10 Rocket 3.6 02:38:35 10° NNW 02:43:36 58° W 02:48:45 10° S
H-2A R/B 2.2 02:40:43 10° NNE 02:44:45 69° ESE 02:48:42 10° S
Cosmos 2082 Rocket 4.4 02:44:12 10° WNW 02:47:21 15° NNW 02:50:30 10° N
Cosmos 1553 Rocket 4.0 02:42:00 10° SSW 02:48:10 72° W 02:54:31 10° N
Resurs 1-4 Rocket 3.0 02:43:26 10° N 02:48:12 34° WNW 02:52:55 10° SW
In-Cosmos 22 4.3 02:43:50 10° S 02:49:07 78° E 02:54:31 10° NNE
USA 276 2.7 02:50:08 12° SSW 02:50:21 12° SSW 02:51:10 10° S
Cosmos 2322 Rocket 3.7 02:48:11 10° WNW 02:51:19 15° W 02:54:28 10° SW
BREEZE-M DEB (TANK) 3.9 02:50:46 10° W 02:54:02 56° SSW 03:04:37 10° ESE
Cosmos 1709 Rocket 4.3 02:49:46 10° N 02:55:54 74° ENE 03:02:01 10° SSE
CZ-2C R/B 3.2 02:51:16 10° NNE 02:56:04 53° E 03:00:41 10° S
Cosmos 1340 Rocket 3.8 02:52:53 10° N 02:56:33 49° ENE 03:00:13 10° SSE
H-2A R/B 2.8 02:57:49 10° N 03:02:26 35° WNW 03:07:08 10° SW
Cosmos 2219 Rocket 3.4 03:01:26 10° NW 03:05:30 21° W 03:09:32 10° SSW
Cosmos 2237 Rocket 2.6 03:00:31 10° NNW 03:06:15 74° ENE 03:11:55 10° SE
Cosmos 44 3.7 03:02:17 10° NW 03:07:44 86° NE 03:13:03 10° SE
Cosmos 1980 3.9 03:02:25 10° NNW 03:08:06 81° ENE 03:13:46 10° SSE
